TimeCST,TemperatureF,Dew PointF,Humidity,Sea Level PressureIn,VisibilityMPH,Wind Direction,Wind SpeedMPH,Gust SpeedMPH,PrecipitationIn,Events,Conditions,WindDirDegrees,DateUTC
12:15 AM,41.0,41.0,100,30.19,10.0,Calm,Calm,-,N/A,,Clear,0,2013-01-21 06:15:00
12:35 AM,39.0,39.0,100,30.19,10.0,Calm,Calm,-,N/A,,Clear,0,2013-01-21 06:35:00
12:55 AM,38.7,38.7,100,30.19,10.0,Calm,Calm,-,N/A,,Clear,0,2013-01-21 06:55:00
1:15 AM,38.7,38.7,100,30.19,10.0,Calm,Calm,-,N/A,,Clear,0,2013-01-21 07:15:00
1:35 AM,38.3,38.3,100,30.19,10.0,Calm,Calm,-,N/A,,Clear,0,2013-01-21 07:35:00
1:55 AM,37.6,37.6,100,30.19,10.0,Calm,Calm,-,N/A,,Clear,0,2013-01-21 07:55:00
2:15 AM,37.6,37.6,100,30.20,10.0,Calm,Calm,-,N/A,,Clear,0,2013-01-21 08:15:00
2:35 AM,37.4,37.4,100,30.21,10.0,Calm,Calm,-,N/A,,Clear,0,2013-01-21 08:35:00
2:55 AM,37.2,37.2,100,30.20,10.0,Calm,Calm,-,N/A,,Clear,0,2013-01-21 08:55:00
3:15 AM,37.9,37.9,100,30.20,10.0,Calm,Calm,-,N/A,,Clear,0,2013-01-21 09:15:00
3:55 AM,36.5,36.5,100,30.20,10.0,Calm,Calm,-,N/A,,Clear,0,2013-01-21 09:55:00
4:15 AM,36.1,36.1,100,30.20,10.0,Calm,Calm,-,N/A,,Clear,0,2013-01-21 10:15:00
4:35 AM,36.5,36.5,100,30.20,10.0,Calm,Calm,-,N/A,,Clear,0,2013-01-21 10:35:00
4:55 AM,37.6,37.6,100,30.21,7.0,Calm,Calm,-,N/A,,Clear,0,2013-01-21 10:55:00
5:15 AM,36.3,36.3,100,30.20,7.0,Calm,Calm,-,N/A,,Clear,0,2013-01-21 11:15:00
5:35 AM,36.5,36.5,100,30.21,7.0,Calm,Calm,-,N/A,,Clear,0,2013-01-21 11:35:00
5:55 AM,36.7,36.7,100,30.21,10.0,Calm,Calm,-,N/A,,Clear,0,2013-01-21 11:55:00
6:15 AM,36.3,36.3,100,30.22,10.0,Calm,Calm,-,N/A,,Clear,0,2013-01-21 12:15:00
6:55 AM,35.2,35.2,100,30.23,10.0,Calm,Calm,-,N/A,,Clear,0,2013-01-21 12:55:00
7:15 AM,35.6,35.6,100,30.23,7.0,Calm,Calm,-,N/A,,Clear,0,2013-01-21 13:15:00
7:35 AM,35.4,35.4,100,30.24,7.0,Calm,Calm,-,N/A,,Clear,0,2013-01-21 13:35:00
7:55 AM,35.6,35.6,100,30.25,7.0,NNE,4.6,-,N/A,,Clear,20,2013-01-21 13:55:00
8:15 AM,39.7,39.7,100,30.25,10.0,Calm,Calm,-,N/A,,Clear,0,2013-01-21 14:15:00
8:35 AM,43.9,43.9,100,30.25,10.0,Calm,Calm,-,N/A,,Clear,0,2013-01-21 14:35:00
8:55 AM,46.6,45.0,94,30.26,10.0,NNE,13.8,-,N/A,,Clear,20,2013-01-21 14:55:00
9:15 AM,47.5,42.4,83,30.27,10.0,NNE,8.1,-,N/A,,Clear,30,2013-01-21 15:15:00
9:35 AM,48.2,42.3,80,30.28,10.0,NNE,9.2,-,N/A,,Clear,20,2013-01-21 15:35:00
9:55 AM,48.0,41.4,78,30.29,10.0,North,9.2,-,N/A,,Clear,10,2013-01-21 15:55:00
10:15 AM,48.4,39.4,71,30.30,10.0,NNE,9.2,-,N/A,,Clear,30,2013-01-21 16:15:00
10:35 AM,49.1,39.2,69,30.31,10.0,North,12.7,-,N/A,,Mostly Cloudy,10,2013-01-21 16:35:00
10:55 AM,48.2,38.3,69,30.31,10.0,North,11.5,-,N/A,,Overcast,10,2013-01-21 16:55:00
11:15 AM,49.3,37.0,63,30.32,10.0,North,9.2,-,N/A,,Mostly Cloudy,10,2013-01-21 17:15:00
11:35 AM,49.3,35.8,60,30.32,10.0,NE,9.2,16.1,N/A,,Mostly Cloudy,40,2013-01-21 17:35:00
11:55 AM,49.5,35.6,59,30.32,10.0,NE,11.5,16.1,N/A,,Overcast,50,2013-01-21 17:55:00
12:15 PM,50.0,35.6,58,30.31,10.0,NNE,11.5,-,N/A,,Overcast,30,2013-01-21 18:15:00
12:35 PM,49.1,33.8,56,30.31,10.0,NNE,12.7,17.3,N/A,,Overcast,30,2013-01-21 18:35:00
12:55 PM,48.6,32.7,54,30.31,10.0,NE,9.2,-,N/A,,Overcast,40,2013-01-21 18:55:00
1:15 PM,48.2,32.0,54,30.31,10.0,ENE,10.4,-,N/A,,Overcast,60,2013-01-21 19:15:00
1:35 PM,50.0,31.6,49,30.30,10.0,NNE,9.2,-,N/A,,Mostly Cloudy,20,2013-01-21 19:35:00
1:55 PM,50.7,30.9,47,30.30,10.0,ENE,8.1,-,N/A,,Overcast,60,2013-01-21 19:55:00
2:15 PM,50.4,30.6,47,30.30,10.0,East,9.2,-,N/A,,Overcast,80,2013-01-21 20:15:00
2:35 PM,52.0,30.9,45,30.30,10.0,East,4.6,-,N/A,,Mostly Cloudy,80,2013-01-21 20:35:00
2:55 PM,51.4,30.4,44,30.30,10.0,NNE,9.2,-,N/A,,Scattered Clouds,30,2013-01-21 20:55:00
3:15 PM,51.6,30.6,45,30.30,10.0,ENE,6.9,-,N/A,,Mostly Cloudy,60,2013-01-21 21:15:00
3:35 PM,50.7,30.0,45,30.30,10.0,NE,5.8,-,N/A,,Mostly Cloudy,40,2013-01-21 21:35:00
3:55 PM,51.1,30.7,46,30.30,10.0,NE,3.5,-,N/A,,Overcast,50,2013-01-21 21:55:00
4:15 PM,51.6,29.7,43,30.30,10.0,ENE,4.6,-,N/A,,Overcast,70,2013-01-21 22:15:00
4:35 PM,51.1,30.2,45,30.30,10.0,NE,5.8,-,N/A,,Overcast,50,2013-01-21 22:35:00
4:55 PM,50.9,30.2,45,30.29,10.0,NE,5.8,-,N/A,,Overcast,50,2013-01-21 22:55:00
5:15 PM,50.0,30.9,48,30.29,10.0,ENE,3.5,-,N/A,,Overcast,60,2013-01-21 23:15:00
5:35 PM,48.2,31.3,52,30.29,10.0,NE,3.5,-,N/A,,Scattered Clouds,50,2013-01-21 23:35:00
5:55 PM,46.9,31.1,54,30.29,10.0,Calm,Calm,-,N/A,,Clear,0,2013-01-21 23:55:00
6:15 PM,46.0,30.2,54,30.29,10.0,ENE,3.5,-,N/A,,Clear,60,2013-01-22 00:15:00
6:35 PM,45.1,29.7,55,30.29,10.0,ENE,3.5,-,N/A,,Scattered Clouds,70,2013-01-22 00:35:00
6:55 PM,43.9,30.2,59,30.28,10.0,ENE,3.5,-,N/A,,Scattered Clouds,60,2013-01-22 00:55:00
7:15 PM,43.7,29.3,57,30.28,10.0,NE,3.5,-,N/A,,Clear,50,2013-01-22 01:15:00
7:35 PM,42.3,30.2,62,30.29,10.0,Calm,Calm,-,N/A,,Clear,0,2013-01-22 01:35:00
7:55 PM,41.0,31.3,68,30.29,10.0,Calm,Calm,-,N/A,,Scattered Clouds,0,2013-01-22 01:55:00
8:15 PM,42.3,31.5,66,30.30,10.0,Calm,Calm,-,N/A,,Mostly Cloudy,0,2013-01-22 02:15:00
8:35 PM,41.4,32.4,70,30.30,10.0,Calm,Calm,-,N/A,,Scattered Clouds,0,2013-01-22 02:35:00
8:55 PM,39.7,33.3,78,30.29,10.0,Calm,Calm,-,N/A,,Scattered Clouds,0,2013-01-22 02:55:00
9:15 PM,38.5,33.4,82,30.30,10.0,Calm,Calm,-,N/A,,Scattered Clouds,0,2013-01-22 03:15:00
9:35 PM,39.4,32.0,75,30.30,10.0,NE,3.5,-,N/A,,Scattered Clouds,40,2013-01-22 03:35:00
9:55 PM,39.4,32.0,75,30.31,10.0,Calm,Calm,-,N/A,,Scattered Clouds,0,2013-01-22 03:55:00
10:15 PM,40.5,30.7,68,30.32,10.0,NNE,3.5,-,N/A,,Scattered Clouds,20,2013-01-22 04:15:00
10:35 PM,39.7,30.6,70,30.32,10.0,NNE,3.5,-,N/A,,Scattered Clouds,30,2013-01-22 04:35:00
10:55 PM,39.4,30.2,70,30.32,10.0,NNE,4.6,-,N/A,,Scattered Clouds,30,2013-01-22 04:55:00
11:15 PM,39.4,29.7,68,30.32,10.0,NE,5.8,-,N/A,,Scattered Clouds,40,2013-01-22 05:15:00
11:35 PM,39.2,28.9,67,30.32,10.0,NE,5.8,-,N/A,,Clear,40,2013-01-22 05:35:00
11:55 PM,38.7,29.1,69,30.32,10.0,NE,5.8,-,N/A,,Clear,40,2013-01-22 05:55:00